This is the latest recevied weather packets stored in our database for station/object HB9KBJ-4. If no packets are shown the sender has not sent any weather packets the latest 10 day(s).
| Time | Temp. | Humidity | Pressure | Rain* | Wind** | Luminosity | Snow |
|---|---|---|---|---|---|---|---|
| 1778000193 | 14.44° C | 65% | - | 2.03 mm | - | - | - |
| 1777999893 | 14.44° C | 65% | - | 2.03 mm | - | - | - |
| 1777999593 | 15° C | 64% | - | 2.03 mm | - | - | - |
| 1777999293 | 14.44° C | 63% | - | 2.03 mm | - | - | - |
| 1777998692 | 15° C | 67% | - | 2.03 mm | - | - | - |
| 1777998392 | 15° C | 69% | - | 2.03 mm | - | - | - |
| 1777998091 | 15° C | 70% | - | 2.03 mm | - | - | - |
| 1777996290 | 14.44° C | 68% | - | 0.76 mm | - | - | - |
| 1777995689 | 15° C | 67% | - | 0.51 mm | - | - | - |
| 1777995089 | 15° C | 65% | - | 0.51 mm | - | - | - |
| 1777994488 | 15° C | 65% | - | 0.51 mm | - | - | - |
| 1777994188 | 15° C | 65% | - | 0.51 mm | - | - | - |
| 1777993887 | 15° C | 64% | - | 0.51 mm | - | - | - |
| 1777993587 | 15.56° C | 63% | - | 0.51 mm | - | - | - |
| 1777993287 | 16.11° C | 61% | - | 0.51 mm | - | - | - |
| 1777992986 | 16.67° C | 61% | - | 0.51 mm | - | - | - |
| 1777992686 | 16.67° C | 60% | - | 0.51 mm | - | - | - |
| 1777991785 | 17.78° C | 58% | - | 0.51 mm | - | - | - |
| 1777991185 | 18.33° C | 56% | - | 0.51 mm | - | - | - |
| 1777990885 | 17.78° C | 56% | - | 0.51 mm | - | - | - |
| 1777990584 | 17.78° C | 56% | - | 0.51 mm | - | - | - |
| 1777989984 | 17.78° C | 57% | - | 0.51 mm | - | - | - |
| 1777989383 | 17.78° C | 56% | - | 0.51 mm | - | - | - |
| 1777989083 | 17.78° C | 57% | - | 0.51 mm | - | - | - |
| 1777988782 | 17.22° C | 58% | - | 0.51 mm | - | - | - |
* Rain since midnight (hover to see other rain measurements)
** Current wind speed in m/s (hover to see current wind gust speed)